| time (UTC) | temp F | wind direction | speed MPH | gust MPH | rain 1hr in | rain 24hr in | rain mn in | humidity % | barometer mb |
| 20260904181503 | 59 | 220 | 3.0 | 10.0 | 0.00 | 0.62 | 0.27 | 93 | 995.6 |
| 20260904180004 | 59 | 230 | 3.0 | 8.0 | 0.02 | 0.62 | 0.27 | 93 | 995.6 |
| 20260904174504 | 59 | 195 | 3.0 | 12.0 | 0.05 | 0.62 | 0.27 | 94 | 995.6 |
| 20260904170004 | 59 | 212 | 1.0 | 8.0 | 0.07 | 0.61 | 0.25 | 93 | 996.0 |
| 20260904164505 | 59 | 224 | 2.0 | 8.0 | 0.05 | 0.58 | 0.22 | 93 | 996.0 |
| 20260904163004 | 59 | 213 | 3.0 | 7.0 | 0.03 | 0.57 | 0.20 | 93 | 996.5 |
| 20260904161504 | 59 | 202 | 3.0 | 7.0 | 0.05 | 0.57 | 0.20 | 93 | 996.5 |
| 20260904160005 | 59 | 170 | 2.0 | 7.0 | 0.05 | 0.55 | 0.18 | 93 | 996.5 |
| 20260904150004 | 59 | 211 | 3.0 | 12.0 | 0.06 | 0.50 | 0.13 | 92 | 997.1 |
| 20260904143005 | 59 | 182 | 1.0 | 5.0 | 0.04 | 0.47 | 0.10 | 91 | 997.7 |
| 20260904130004 | 60 | 209 | 4.0 | 12.0 | 0.02 | 0.43 | 0.05 | 87 | 999.0 |
| 20260904121504 | 61 | 241 | 3.0 | 13.0 | 0.00 | 0.40 | 0.02 | 82 | 999.2 |
| 20260904113005 | 63 | 161 | 2.0 | 12.0 | 0.00 | 0.40 | 0.02 | 78 | 999.7 |
| 20260904101504 | 63 | 214 | 3.0 | 12.0 | 0.00 | 0.40 | 0.02 | 78 | 1000.1 |
| 20260904100005 | 63 | 225 | 3.0 | 12.0 | 0.00 | 0.40 | 0.02 | 78 | 1000.3 |
| 20260904091504 | 63 | 249 | 4.0 | 9.0 | 0.00 | 0.40 | 0.02 | 81 | 1000.6 |
| 20260904090005 | 63 | 219 | 2.0 | 9.0 | 0.00 | 0.40 | 0.02 | 80 | 1000.6 |
| 20260904083005 | 63 | 274 | 3.0 | 8.0 | 0.00 | 0.40 | 0.02 | 82 | 1000.6 |
| 20260904081504 | 62 | 251 | 3.0 | 12.0 | 0.00 | 0.40 | 0.02 | 83 | 1000.7 |
| 20260904080004 | 62 | 243 | 2.0 | 8.0 | 0.00 | 0.40 | 0.02 | 83 | 1001.1 |
| 20260904073005 | 61 | 271 | 6.0 | 15.0 | 0.00 | 0.40 | 0.02 | 84 | 1001.1 |
| 20260904064504 | 60 | 248 | 5.0 | 9.0 | 0.00 | 0.40 | 0.02 | 87 | 1001.1 |
| 20260904061504 | 60 | 245 | 3.0 | 13.0 | 0.00 | 0.40 | 0.02 | 88 | 1001.1 |
| 20260904060004 | 59 | 334 | 2.0 | 12.0 | 0.00 | 0.40 | 0.02 | 89 | 1001.1 |
| 20260904041505 | 60 | 233 | 5.0 | 10.0 | 0.00 | 0.40 | 0.02 | 90 | 1001.1 |
| 20260904040005 | 60 | 225 | 3.0 | 12.0 | 0.00 | 0.40 | 0.02 | 90 | 1001.0 |
| 20260904034505 | 60 | 221 | 3.0 | 10.0 | 0.00 | 0.40 | 0.02 | 91 | 1001.1 |
| 20260904030004 | 61 | 248 | 3.0 | 8.0 | 0.00 | 0.40 | 0.02 | 91 | 1001.1 |
| 20260904023005 | 61 | 269 | 3.0 | 10.0 | 0.01 | 0.40 | 0.02 | 92 | 1001.4 |
| 20260904021504 | 61 | 268 | 4.0 | 9.0 | 0.01 | 0.40 | 0.02 | 92 | 1001.4 |
| 20260904020005 | 61 | 249 | 3.0 | 9.0 | 0.01 | 0.40 | 0.02 | 93 | 1001.0 |
| 20260904010004 | 62 | 279 | 3.0 | 8.0 | 0.02 | 0.39 | 0.02 | 93 | 1001.0 |
| 20260904001504 | 63 | 277 | 3.0 | 8.0 | 0.00 | 0.38 | 0.00 | 94 | 1000.9 |
| 20260903234503 | 63 | 235 | 3.0 | 9.0 | 0.00 | 0.38 | 0.00 | 94 | 1000.9 |
| 20260903233003 | 63 | 202 | 2.0 | 8.0 | 0.00 | 0.38 | 0.00 | 94 | 1001.0 |
| 20260903231503 | 63 | 242 | 3.0 | 6.0 | 0.00 | 0.38 | 0.00 | 94 | 1001.0 |
| 20260903230004 | 63 | 223 | 2.0 | 6.0 | 0.00 | 0.38 | 0.00 | 94 | 1001.1 |
| 20260903224505 | 63 | 225 | 3.0 | 8.0 | 0.00 | 0.38 | 0.00 | 94 | 1001.0 |
| 20260903221504 | 63 | 194 | 5.0 | 12.0 | 0.01 | 0.38 | 0.00 | 94 | 1001.1 |
| 20260903203005 | 62 | 190 | 4.0 | 7.0 | 0.01 | 0.28 | 0.28 | 95 | 1002.0 |
| 20260903194504 | 62 | 192 | 1.0 | 5.0 | 0.01 | 0.28 | 0.28 | 94 | 1002.7 |
| 20260903191504 | 62 | 198 | 3.0 | 6.0 | 0.20 | 0.28 | 0.28 | 94 | 1003.0 |
| 20260903190005 | 62 | 193 | 2.0 | 7.0 | 0.25 | 0.28 | 0.28 | 94 | 1003.2 |